Preview of NWS' New Version of Forecast
This preview is not operational and should not be used for support decisions.
Latest weather observations around

Stillwater, Stillwater Regional Airport (KSWO)

Using International System of Units (Switch to English Units)
Date/ Time (CDT) Wind (kph) Vis. (km) Weather Sky Cond. Temp (°C) Rel. Humidity Wind Chill (°C) Heat Index (°C) Pressure Precip. (cm)
Air Dwpt 6 hour Altimeter (hPa) Sea level (hPa) 1 hr 3 hr 6 hr
Max Min
Sep 16 22:53 SE 15 16.09 Clear CLR 27 21     67%   29 1016.3 1014.5      
Sep 16 21:53 ESE 9 16.09 Clear CLR 27 21     67%   29 1015.9 1014.5      
Sep 16 20:53 ESE 11 16.09 Clear CLR 28 21     67%   30 1015.9 1014.4      
Sep 16 19:53 SE 9 16.09 Clear CLR 29 21     61%   32 1015.6 1014.2      
Sep 16 18:53 SE 9 16.09 Clear CLR 31 21     55%   33 1015.6 1014.3      
Sep 16 17:53 SE 15 16.09 Clear CLR 33 20     47%   35 1015.6 1014.2      
Sep 16 16:53 SSE 18 16.09 Clear CLR 33 21     47%   36 1015.9 1014.4      
Sep 16 15:53 SE 17 16.09 Clear CLR 34 19     41%   37 1016.6 1014.9      
Sep 16 14:53 SE 17 16.09 Partly Cloudy SCT050 34 21     46%   37 1016.9 1015.4      
Sep 16 13:53 S 17 16.09 Partly Cloudy SCT050 34 20     44%   36 1017.6 1016.2      
Sep 16 12:53 SSW 9 16.09 Clear CLR 32 21     50%   35 1018.3 1016.9      
Sep 16 11:53 S 17 16.09 Clear CLR 33 21     49%   36 1019 1017.4      
Sep 16 10:53 SSW 15 16.09 Clear CLR 31 21     54%   34 1019.3 1017.8      
Sep 16 09:53 S 13 16.09 Clear CLR 29 20     59%   31 1019.7 1018      
Sep 16 08:53 S 11 16.09 Clear CLR 26 20     69%   27 1019.3 1018      
Sep 16 07:53 SSE 9 14.48 Clear CLR 23 20     82%   24 1019 1017.6      
Sep 16 06:53 S 5 14.48 Clear CLR 23 19     81%   23 1018.6 1017.2      
Sep 16 05:53 S 8 16.09 Clear CLR 23 19     81%   23 1018.3 1016.7      
Sep 16 04:53 S 9 16.09 Clear CLR 23 20     82%   24 1018 1016.5      
Sep 16 03:53 SSE 11 16.09 Clear CLR 24 20     76%   25 1018 1016.4      
Sep 16 02:53 SSE 11 16.09 Clear CLR 24 20     76%   25 1018 1016.4      
Sep 16 01:53 SSE 9 16.09 Clear CLR 25 20     74%   25 1018.3 1016.6      
Sep 16 00:53 SSE 11 16.09 Clear CLR 26 20     71%   26 1018.3 1016.6      
Sep 15 23:53 ESE 8 16.09 Clear CLR 27 19     64%   28 1018 1016.5      
Sep 15 22:53 SSE 11 16.09 Clear CLR 27 21     71%   28 1018 1016.5      
Sep 15 21:53 SSE 11 16.09 Clear CLR 27 21     71%   28 1017.6 1016.4      
Sep 15 20:53 ESE 8 16.09 Clear CLR 27 21     67%   29 1017.3 1015.8      
Sep 15 19:53 SE 9 16.09 Clear CLR 28 20     61%   30 1016.9 1015.7      
Sep 15 18:53 SSE 11 16.09 Clear CLR 32 19     48%   33 1016.9 1015.6      
Sep 15 17:53 S 13 16.09 Clear CLR 33 19     44%   34 1016.9 1015.6      
Sep 15 16:53 S 11 16.09 Clear CLR 34 18     39%   36 1017.3 1015.7      
Sep 15 15:53 S 9 16.09 Clear CLR 34 19     41%   37 1017.6 1016      
Sep 15 14:53 S 17 16.09 Clear CLR 34 19     41%   37 1018.3 1016.7      
Sep 15 13:53 SSW 13 16.09 Clear CLR 34 19     43%   36 1019 1017.3      
Sep 15 12:53 SSW 17 16.09 Clear CLR 33 20     46%   36 1019.7 1018.1      
Sep 15 11:53 SSW 17 16.09 Clear CLR 32 21     50%   35 1020 1018.4      
Sep 15 10:53 SSW 17 16.09 Clear CLR 30 21     57%   32 1020 1018.6      
Sep 15 09:53 S 15 16.09 Clear CLR 28 20     63%   29 1020 1018.8      
Sep 15 08:53 S 11 16.09 Clear CLR 26 19     67%   26 1020 1018.5      
Sep 15 07:53 S 8 16.09 Clear CLR 23 19     79%   23 1019.7 1018.3      
Sep 15 06:53 S 8 16.09 Clear CLR 22 18     76%   22 1019.3 1018.1      
Sep 15 05:53 S 8 16.09 Clear CLR 22 18     79%   23 1019.3 1017.8      
Sep 15 04:53 S 11 16.09 Clear CLR 23 18     76%   23 1019 1017.6      
Sep 15 03:53 S 8 16.09 Clear CLR 23 19     79%   23 1019 1017.7      
Sep 15 02:53 SSE 11 16.09 Clear CLR 23 19     79%   24 1019.7 1018.1      
Sep 15 01:53 ESE 8 16.09 Clear CLR 24 19     76%   24 1020 1018.4      
Sep 15 00:53 S 11 16.09 Clear CLR 24 19     74%   25 1019.7 1018.1      
Sep 14 23:53   16.09 Clear CLR 25 19     71%   25 1019.7 1018      
Sep 14 22:53   16.09 Clear CLR 26 20     71%   26 1019.7 1018.1      
Sep 14 21:53 SSE 9 16.09 Clear CLR 27 20     67%   28 1019.3 1018      
Sep 14 20:53 S 13 16.09 Clear CLR 27 19     64%   28 1019 1017.6      
Sep 14 19:53 S 13 16.09 Clear CLR 28 20     63%   29 1018.6 1017.2      
Sep 14 18:53 S 11 16.09 Clear CLR 29 20     57%   31 1018.3 1017.1      
Sep 14 17:53 S 17 16.09 Clear CLR 32 20     49%   34 1018.3 1016.9      
Sep 14 16:53 S 21 16.09 Clear CLR 33 19     44%   35 1018.3 1017      
Sep 14 15:53 SSW 18 16.09 Clear CLR 33 19     43%   35 1019 1017.4      
Sep 14 14:53 SSW 18 16.09 Clear CLR 33 20     46%   36 1019.7 1018.1      
Sep 14 13:53 SW 21 16.09 Clear CLR 33 21     49%   36 1020.3 1018.8      
Sep 14 12:53 S 24 16.09 Clear CLR 32 21     53%   35 1021.3 1019.9      
Sep 14 11:53 SSW 18 16.09 Clear CLR 30 21     57%   32 1021.7 1020.4      
Sep 14 10:53 S 15 16.09 Clear CLR 28 22     67%   31 1022.4 1021      
Sep 14 09:53 S 11 16.09 Mostly Clear FEW075 24 22     85%   25 1022.7 1021.5      
Sep 14 09:42 S 9 16.09 Partly Cloudy SCT003 SCT075 24 22     88%   25 1022.7        
Sep 14 09:07 S 8 4.83 Fog/Mist OVC002 23 21     90%   23 1022.7        
Sep 14 08:53 S 9 2.82 Fog/Mist OVC002 22 21     91%   23 1022.7 1021.4      
Sep 14 08:51 S 9 2.82 Fog/Mist OVC002 22 21     94%   23 1022.7        
Sep 14 08:27 S 8 0.8 Fog VV002 22 21     93%   22 1022.4        
Sep 14 07:53 SSE 9 0.4 Fog VV002 21 20     93%     1022.4 1021.3      
Sep 14 06:53 SSE 9 0.8 Fog VV002 21 20     93%     1022 1020.8      
Sep 14 06:26 SSE 9 1.21 Fog/Mist VV002 21 20     93%     1021.7        
Sep 14 05:53 SSE 5 1.61 Fog/Mist OVC002 21 20     93%     1021.7 1020.6      
Sep 14 05:46 SE 9 2.41 Fog/Mist OVC002 21 20     93%     1021.7        
Sep 14 04:53 ESE 5 16.09 Cloudy OVC003 21 19     90%     1021.7 1020.5      
Sep 14 04:42 E 5 16.09 Mostly Cloudy BKN003 21 19     90%     1021.3        
Sep 14 04:29 E 5 16.09 Partly Cloudy SCT003 21 19     90%     1021.3        
Sep 14 03:53 ESE 5 16.09 Clear CLR 22 20     90%   22 1021.3 1020.2      
Sep 14 02:53 SE 9 16.09 Clear CLR 22 20     90%   22 1022 1020.7      
Sep 14 01:53 ESE 13 16.09 Clear CLR 22 20     87%   23 1021.7 1020.6      
Sep 14 00:53 ESE 5 14.48 Clear CLR 22 20     90%   22 1021.7 1020.6      
Sep 13 23:53 ENE 8 16.09 Clear CLR 22 19     87%   22 1022 1020.7      
May 15 09:33 NW 17 16.09 Mostly Cloudy BKN021 21 16     73%     1017.3        
May 15 03:53 ESE 21 16.09 Clear CLR 19 16     79%     1013.9 1012.3      
May 14 23:53 SSE 15 16.09 Clear CLR 26 19     67%   26 1010.2 1008.6      
May 14 09:53 S 26 16.09 Clear CLR 28 19     58%   29 1012.9 1011.6      
May 12 02:53 S 33 16.09 Clear and Windy   25 15     54%   25 1009.2 1007.6      
May 11 17:53   16.09 Clear CLR 30 16     42%   30 1006.8 1005.4      
May 11 11:53   16.09 Clear CLR 27 16     51%   28 1008.8 1007.5      
Jun 11 20:53 SSE 21 16.09 Clear CLR 27 18     60%   28 1010.2 1008.6      
Jun 11 14:53 S 35 16.09 Clear and Windy   32 18     44%   33 1010.5 1009.1      
Jun 11 07:53 S 26 16.09 Clear CLR 23 18     74%   24 1010.8 1009.4      
Jun 10 20:53 S 22 16.09 Clear CLR 27 18     58%   28 1008.5 1006.9      
Jun 10 15:53 SSE 32 16.09 Clear and Windy CLR 32 19     48%   33 1008.1 1006.7      
Jun 10 07:53 S 21 16.09 Clear CLR 22 17     73%   22 1010.2 1008.8      
Jun 07 23:53 NW 5 16.09 Clear CLR 15 13     90%     1017.3 1016.4